Find Starlink 32537

NORAD ID: 61923 Int'l Des: 2024-207 Owner: SPXS Country: US Constellation: starlink operational
LEOCIRCULAR

現在のビュー

3D地球を読み込み中...

About Starlink 32537

Starlink 32537 (NORAD 61923) is a starlink constellation satellite (v2 mini) launched Nov 11, 2024 by SPXS of US. It operates in LEO, CIRCULAR orbit with a mass of 730.00 kg.

次回通過

Passes for default location (London). Set your location on the main map for personalized predictions.

高度履歴

Loading altitude history...

軌道要素

1 61923U 24207M 26263.97827422 .00010870 00000-0 40386-3 0 9996
2 61923 43.0037 262.7687 0001937 271.3917 88.6713 15.27586089104546
Epoch: Sep 20, 2026 • Age: 7 hours

現在のステータス

高度 483.4 km
遠地点 / 近地点 N/A
速度 7.63 km/s
衛星直下点 -4.74°S, 12.53°W
打ち上げ日 Nov 11, 2024
運用期間 1.8 years
タイプ internet

技術仕様

分類 Payload
質量 730.00 kg
乾燥質量 700.00 kg
長さ 0.30 m
スパン 29.00 m
形状 ? Box + pan
製造者 SPXS
バスタイプ Starlink V2M
フェーズステータス In Orbit
所有者/国 SPXS/US

Most Searched